Regional Weather Roundup
Issued by NWS

Home | Current Version | Previous Version | Text Only | Print | Product List | Glossary Off
Versions: 1 2 3 4 5 6 7 8 9 10 11 12 13 14 15 16 17 18 19 20 21 22 23 24 25 26 27 28 29 30 31 32 33 34 35 36 37 38 39 40 41 42 43 44 45 46 47 48 49 50

000
ASUS43 KIND 180459
RWRIN

WEATHER ROUNDUP FOR INDIANA
NATIONAL WEATHER SERVICE INDIANAPOLIS IN
1200 AM EST MON DEC 18 2017

NOTE: "FAIR" INDICATES FEW OR NO CLOUDS BELOW 12,000 FEET WITH NO
SIGNIFICANT WEATHER AND/OR OBSTRUCTIONS TO VISIBILITY.

* - STATION DOES NOT REPORT WEATHER SUCH AS PRECIPITATION OR FOG.

+ - STATION NOT QUALITY CONTROLLED BY THE NATIONAL WEATHER SERVICE.
    USE DATA WITH CAUTION...ESPECIALLY DEWPOINT AND RELATIVE
    HUMIDITY OBSERVATIONS.

INZ001>003-010>013-019-020-180600-
NORTHWEST INDIANA

CITY           SKY/WX    TMP DP  RH WIND       PRES   REMARKS
KNOX *+        CLOUDY    41  37  87 S8        30.01S
MONTICELLO +   CLOUDY    41  38  89 SW12      30.03F

$$

LMZ046-743>745-180600-
SOUTHERN LAKE MICHIGAN

STATION/POSITION TIME  TEMP    WIND        PRES    WAVE
                       AIR SEA DIR/SP/G            HT
                 (UTC) (F)     (DEG/KT/KT) (MB)    (FT)
BURNS HARBOR     0440   43     200/ 10/ 13 1016.3S
MICHIGAN CITY    0430   42     180/ 10/ 12   N/A

$$

INZ004-005-014>016-021>024-180600-
NORTH CENTRAL INDIANA

CITY           SKY/WX    TMP DP  RH WIND       PRES   REMARKS
GOSHEN         CLOUDY    39  36  89 SW10      30.02S WCI  32
PERU/GRISSOM   CLOUDY    40  40 100 SW8       30.03F WCI  34
SOUTH BEND     CLOUDY    38  36  92 SW9       30.01F WCI  31
WARSAW +       CLOUDY    39  37  93 SW5       30.03S WCI  36

$$

INZ006>009-017-018-025>027-180600-
NORTHEAST INDIANA

CITY           SKY/WX    TMP DP  RH WIND       PRES   REMARKS
FORT WAYNE     CLOUDY    39  36  89 SW7       30.05F WCI  34
KENDALLVILLE + CLOUDY    38  36  92 SW8       30.03S WCI  32

$$

INZ028-029-035-036-043>045-051>053-180600-
WEST CENTRAL INDIANA

CITY           SKY/WX    TMP DP  RH WIND       PRES   REMARKS
LAFAYETTE      CLOUDY    41  39  93 SW7       30.04F
TERRE HAUTE    CLOUDY    43  39  86 S8        30.08F

$$

INZ030>032-037>040-046>048-054>057-064-065-180600-
CENTRAL INDIANA

CITY           SKY/WX    TMP DP  RH WIND       PRES   REMARKS
INDIANAPOLIS   CLOUDY    40  37  89 S7        30.07F WCI  35
-EAGLE CREEK   CLOUDY    41  36  82 S5        30.06F
KOKOMO +       CLOUDY    40  37  89 S9        30.05F WCI  34
MT COMFORT *+  CLOUDY    37  37 100 S5        30.07F WCI  34
SHELBYVILLE    CLOUDY    41  35  79 S8        30.08F

$$

INZ033-034-041-042-049-050-058-059-180600-
EAST CENTRAL INDIANA

CITY           SKY/WX    TMP DP  RH WIND       PRES   REMARKS
MUNCIE         CLOUDY    42  34  73 SW8       30.06F
RICHMOND +     CLOUDY    36  34  93 SW5       30.09F WCI  32

$$

INZ060-061-067>069-081>083-085>088-180600-
SOUTHWEST INDIANA

CITY           SKY/WX    TMP DP  RH WIND       PRES   REMARKS
EVANSVILLE     LGT RAIN  44  43  96 SW7       30.13S
HUNTINGBURG +  CLOUDY    42  41  96 S8        30.12F FOG

$$

INZ062-063-066-070>080-084-089>092-180600-
SOUTH CENTRAL AND SOUTHEAST INDIANA

CITY           SKY/WX    TMP DP  RH WIND       PRES   REMARKS
BLOOMINGTON    CLOUDY    42  38  85 S7        30.08F
MADISON *+     CLOUDY    41  37  87 CALM      30.13S
SEYMOUR +      CLOUDY    43  37  81 S5        30.11F

$$




USA.gov is the U.S. government's official web portal to all federal, state and local government web resources and services.